AJISAI (EGS)

Last updated on Wed Sep 17 2025 00:02:14 GMT+0000 (Coordinated Universal Time)

1 16908U 86061A 25259.61706316 -.00000073 00000+0 16866-3 0 9998 2 16908 50.0078 268.6185 0011297 204.0645 257.4010 12.44513344446322
UTC large
Height (km)
Speed (km/s)
/
Latitude / Longitude
Inclination (degrees)
Orbital Period (minutes)
Azimuth
Elevation
Range (km)
Doppler Factor

Next 0 passes for location: London (51.5072 / 0.1276)

Sorry there are no passes over London.